Terug naar catalogus

SL-14 DEB

ActiefPO
NORAD 39971·DEBRIS·🇷🇺 Russia

Gelanceerd Aug 18, 1987 vanaf Plesetsk Cosmodrome

Loading…

Volgende Passages (komende 24 uur)

TLE

VersSource: Space-Track

Epoch: Sep 14, 2026, 12:56 UTC

1 39971U 87068CX  26257.53907615  .00000713  00000-0  54934-3 0  9995
2 39971  82.4577 181.9804 0058016 170.2543 313.0825 13.90958016622348

Volg SL-14 DEB in realtime met AllMySat

Download on the App Store